User: anonymous   Login
Location: Dal�� Lhota
(48.7500°N, 14.0167°E)
Time: 07:56:24
(UTC+00:00)
Language:

Tiros 1 despin weight - Orbit

View from above orbital plane
View from above orbital plane
View from above satellite
View from above satellite

Ground track
Ground track

The orbit data is extracted from the following two-line orbital elements,

1 00115U 60002D   21204.89748435  .00000148  00000-0  44421-4 0  9994
2 00115  48.1661 143.5502 0034707 219.7449 140.0920 14.83797876251422
Epoch (UTC): 23 July 2021 21:32:22
Eccentricity: 0.0034707
inclination: 48.1661°
perigee height: 593 km
apogee height: 641 km
right ascension of ascending node: 143.5502°
argument of perigee: 219.7449°
revolutions per day: 14.83797876
mean anomaly at epoch: 140.0920°
orbit number at epoch: 25142

The dashed part of the orbit path shows where the satellite is in the earth's shadow,  

DLR